owner,sensor,date,latitude,longitude,vertical_datum,sea_water_practical_salinity,qcFlag 
DISL,ioos:station:DISL:MBLA:1,2009-03-01T00:02:00Z,30.4367,-88.0117,3.009,15.1,1111122 
DISL,ioos:station:DISL:MBLA:1,2009-03-01T00:05:00Z,30.4367,-88.0117,2.498,14.43,1111122 
DISL,ioos:station:DISL:MBLA:1,2009-03-01T00:07:00Z,30.4367,-88.0117,1.881,14.14,1111122 
DISL,ioos:station:DISL:MBLA:1,2009-03-01T00:10:00Z,30.4367,-88.0117,1.589,13.93,1111122 
DISL,ioos:station:DISL:MBLA:1,2009-03-01T00:12:00Z,30.4367,-88.0117,1.056,14.05,1111122 
DISL,ioos:station:DISL:MBLA:1,2009-03-01T00:15:00Z,30.4367,-88.0117,0.549,13.83,1111122 
DISL,ioos:station:DISL:MBLA:1,2009-03-01T01:03:00Z,30.4367,-88.0117,3.052,16.65,1111122 
DISL,ioos:station:DISL:MBLA:1,2009-03-01T01:05:00Z,30.4367,-88.0117,2.616,14.08,1111122 
DISL,ioos:station:DISL:MBLA:1,2009-03-01T01:07:00Z,30.4367,-88.0117,2.009,14.06,1111122 
DISL,ioos:station:DISL:MBLA:1,2009-03-01T01:11:00Z,30.4367,-88.0117,1.379,13.74,1111122 
DISL,ioos:station:DISL:MBLA:1,2009-03-01T01:13:00Z,30.4367,-88.0117,1.028,13.82,1111122 
DISL,ioos:station:DISL:MBLA:1,2009-03-01T01:16:00Z,30.4367,-88.0117,0.446,13.79,1111122 
DISL,ioos:station:DISL:MBLA:1,2009-03-01T02:02:00Z,30.4367,-88.0117,2.883,14.45,1111122 
DISL,ioos:station:DISL:MBLA:1,2009-03-01T02:05:00Z,30.4367,-88.0117,2.535,14.37,1111122 
DISL,ioos:station:DISL:MBLA:1,2009-03-01T02:07:00Z,30.4367,-88.0117,2.011,13.69,1111122 
DISL,ioos:station:DISL:MBLA:1,2009-03-01T02:10:00Z,30.4367,-88.0117,1.539,13.49,1111122 
DISL,ioos:station:DISL:MBLA:1,2009-03-01T02:13:00Z,30.4367,-88.0117,0.959,13.48,1111122 
DISL,ioos:station:DISL:MBLA:1,2009-03-01T02:15:00Z,30.4367,-88.0117,0.487,13.5,1111122 
DISL,ioos:station:DISL:MBLA:1,2009-03-01T03:03:00Z,30.4367,-88.0117,2.979,13.98,1111122 
DISL,ioos:station:DISL:MBLA:1,2009-03-01T03:05:00Z,30.4367,-88.0117,2.47,13.88,1111122 
DISL,ioos:station:DISL:MBLA:1,2009-03-01T03:07:00Z,30.4367,-88.0117,2.172,13.94,1111122 
DISL,ioos:station:DISL:MBLA:1,2009-03-01T03:10:00Z,30.4367,-88.0117,1.227,13.87,1111122 
DISL,ioos:station:DISL:MBLA:1,2009-03-01T03:13:00Z,30.4367,-88.0117,1.083,13.88,1111122 
DISL,ioos:station:DISL:MBLA:1,2009-03-01T03:16:00Z,30.4367,-88.0117,0.642,13.9,1111122 
DISL,ioos:station:DISL:MBLA:1,2009-03-01T04:03:00Z,30.4367,-88.0117,2.928,14.73,1111122 
DISL,ioos:station:DISL:MBLA:1,2009-03-01T04:05:00Z,30.4367,-88.0117,2.404,14.75,1111122 
DISL,ioos:station:DISL:MBLA:1,2009-03-01T04:08:00Z,30.4367,-88.0117,2.125,14.59,1111122 
DISL,ioos:station:DISL:MBLA:1,2009-03-01T04:10:00Z,30.4367,-88.0117,1.549,14.6,1111122 
DISL,ioos:station:DISL:MBLA:1,2009-03-01T04:12:00Z,30.4367,-88.0117,1.035,14.62,1111122 
DISL,ioos:station:DISL:MBLA:1,2009-03-01T04:15:00Z,30.4367,-88.0117,0.528,14.63,1111122 
DISL,ioos:station:DISL:MBLA:1,2009-03-01T05:02:00Z,30.4367,-88.0117,2.946,15.31,1111122 
DISL,ioos:station:DISL:MBLA:1,2009-03-01T05:05:00Z,30.4367,-88.0117,2.5,15.08,1111122 
DISL,ioos:station:DISL:MBLA:1,2009-03-01T05:08:00Z,30.4367,-88.0117,2.007,14.99,1111122 
DISL,ioos:station:DISL:MBLA:1,2009-03-01T05:11:00Z,30.4367,-88.0117,1.582,15.02,1111122 
DISL,ioos:station:DISL:MBLA:1,2009-03-01T05:14:00Z,30.4367,-88.0117,0.974,15.09,1111122 
DISL,ioos:station:DISL:MBLA:1,2009-03-01T05:17:00Z,30.4367,-88.0117,0.547,14.93,1111122 
DISL,ioos:station:DISL:MBLA:1,2009-03-01T06:03:00Z,30.4367,-88.0117,3.074,19.53,1111122 
DISL,ioos:station:DISL:MBLA:1,2009-03-01T06:05:00Z,30.4367,-88.0117,2.434,18.23,1111122 
DISL,ioos:station:DISL:MBLA:1,2009-03-01T06:07:00Z,30.4367,-88.0117,1.891,17.4,1111122 
DISL,ioos:station:DISL:MBLA:1,2009-03-01T06:10:00Z,30.4367,-88.0117,1.327,16.43,1111122 
DISL,ioos:station:DISL:MBLA:1,2009-03-01T06:13:00Z,30.4367,-88.0117,0.685,16.12,1111122 
DISL,ioos:station:DISL:MBLA:1,2009-03-01T06:15:00Z,30.4367,-88.0117,0.486,16.32,1111122 
DISL,ioos:station:DISL:MBLA:1,2009-03-01T07:02:00Z,30.4367,-88.0117,2.906,17.26,1111122 
DISL,ioos:station:DISL:MBLA:1,2009-03-01T07:05:00Z,30.4367,-88.0117,2.535,17.04,1111122 
DISL,ioos:station:DISL:MBLA:1,2009-03-01T07:07:00Z,30.4367,-88.0117,2.078,16.33,1111122 
DISL,ioos:station:DISL:MBLA:1,2009-03-01T07:10:00Z,30.4367,-88.0117,1.468,15.87,1111122 
DISL,ioos:station:DISL:MBLA:1,2009-03-01T07:13:00Z,30.4367,-88.0117,1.034,15.61,1111122 
DISL,ioos:station:DISL:MBLA:1,2009-03-01T07:15:00Z,30.4367,-88.0117,0.765,15.46,1111122 
DISL,ioos:station:DISL:MBLA:1,2009-03-01T08:03:00Z,30.4367,-88.0117,2.978,16.98,1111122 
DISL,ioos:station:DISL:MBLA:1,2009-03-01T08:05:00Z,30.4367,-88.0117,2.554,16.35,1111122 
DISL,ioos:station:DISL:MBLA:1,2009-03-01T08:07:00Z,30.4367,-88.0117,2.058,15.81,1111122 
DISL,ioos:station:DISL:MBLA:1,2009-03-01T08:10:00Z,30.4367,-88.0117,1.508,15.62,1111122 
DISL,ioos:station:DISL:MBLA:1,2009-03-01T08:12:00Z,30.4367,-88.0117,1.05,15.63,1111122 
DISL,ioos:station:DISL:MBLA:1,2009-03-01T08:15:00Z,30.4367,-88.0117,0.572,15.58,1111122 
DISL,ioos:station:DISL:MBLA:1,2009-03-01T09:03:00Z,30.4367,-88.0117,2.994,15.83,1111122 
DISL,ioos:station:DISL:MBLA:1,2009-03-01T09:05:00Z,30.4367,-88.0117,2.571,15.86,1111122 
DISL,ioos:station:DISL:MBLA:1,2009-03-01T09:09:00Z,30.4367,-88.0117,1.853,15.89,1111122 
DISL,ioos:station:DISL:MBLA:1,2009-03-01T09:11:00Z,30.4367,-88.0117,1.377,15.89,1111122 
DISL,ioos:station:DISL:MBLA:1,2009-03-01T09:13:00Z,30.4367,-88.0117,0.907,15.92,1111122 
DISL,ioos:station:DISL:MBLA:1,2009-03-01T09:16:00Z,30.4367,-88.0117,0.391,15.97,1111122 
DISL,ioos:station:DISL:MBLA:1,2009-03-01T10:02:00Z,30.4367,-88.0117,2.946,16.01,1111122 
DISL,ioos:station:DISL:MBLA:1,2009-03-01T10:05:00Z,30.4367,-88.0117,2.557,16.0,1111122 
DISL,ioos:station:DISL:MBLA:1,2009-03-01T10:07:00Z,30.4367,-88.0117,2.082,15.97,1111122 
DISL,ioos:station:DISL:MBLA:1,2009-03-01T10:10:00Z,30.4367,-88.0117,1.715,15.96,1111122 
DISL,ioos:station:DISL:MBLA:1,2009-03-01T10:13:00Z,30.4367,-88.0117,1.198,15.99,1111122 
DISL,ioos:station:DISL:MBLA:1,2009-03-01T10:16:00Z,30.4367,-88.0117,0.487,15.96,1111122 
DISL,ioos:station:DISL:MBLA:1,2009-03-01T11:03:00Z,30.4367,-88.0117,2.949,16.07,1111122 
DISL,ioos:station:DISL:MBLA:1,2009-03-01T11:05:00Z,30.4367,-88.0117,2.556,16.06,1111122 
DISL,ioos:station:DISL:MBLA:1,2009-03-01T11:08:00Z,30.4367,-88.0117,2.265,16.07,1111122 
DISL,ioos:station:DISL:MBLA:1,2009-03-01T11:10:00Z,30.4367,-88.0117,1.725,16.07,1111122 
DISL,ioos:station:DISL:MBLA:1,2009-03-01T11:13:00Z,30.4367,-88.0117,1.132,16.09,1111122 
DISL,ioos:station:DISL:MBLA:1,2009-03-01T11:16:00Z,30.4367,-88.0117,0.954,16.1,1111122 
DISL,ioos:station:DISL:MBLA:1,2009-03-01T12:03:00Z,30.4367,-88.0117,2.999,16.26,1111122 
DISL,ioos:station:DISL:MBLA:1,2009-03-01T12:05:00Z,30.4367,-88.0117,2.471,16.29,1111122 
DISL,ioos:station:DISL:MBLA:1,2009-03-01T12:08:00Z,30.4367,-88.0117,1.999,16.29,1111122 
DISL,ioos:station:DISL:MBLA:1,2009-03-01T12:10:00Z,30.4367,-88.0117,1.56,16.29,1111122 
DISL,ioos:station:DISL:MBLA:1,2009-03-01T12:13:00Z,30.4367,-88.0117,1.025,16.28,1111122 
DISL,ioos:station:DISL:MBLA:1,2009-03-01T12:15:00Z,30.4367,-88.0117,0.595,16.29,1111122 
DISL,ioos:station:DISL:MBLA:1,2009-03-01T13:02:00Z,30.4367,-88.0117,2.878,16.08,1111122 
DISL,ioos:station:DISL:MBLA:1,2009-03-01T13:05:00Z,30.4367,-88.0117,2.64,16.06,1111122 
DISL,ioos:station:DISL:MBLA:1,2009-03-01T13:08:00Z,30.4367,-88.0117,2.053,16.09,1111122 
DISL,ioos:station:DISL:MBLA:1,2009-03-01T13:10:00Z,30.4367,-88.0117,1.473,16.13,1111122 
DISL,ioos:station:DISL:MBLA:1,2009-03-01T13:13:00Z,30.4367,-88.0117,1.124,16.02,1111122 
DISL,ioos:station:DISL:MBLA:1,2009-03-01T13:15:00Z,30.4367,-88.0117,0.776,16.03,1111122 
DISL,ioos:station:DISL:MBLA:1,2009-03-01T14:03:00Z,30.4367,-88.0117,2.939,15.85,1111122 
DISL,ioos:station:DISL:MBLA:1,2009-03-01T14:05:00Z,30.4367,-88.0117,2.552,15.82,1111122 
DISL,ioos:station:DISL:MBLA:1,2009-03-01T14:08:00Z,30.4367,-88.0117,1.95,15.7,1111122 
DISL,ioos:station:DISL:MBLA:1,2009-03-01T14:11:00Z,30.4367,-88.0117,1.803,15.69,1111122 
DISL,ioos:station:DISL:MBLA:1,2009-03-01T14:14:00Z,30.4367,-88.0117,1.014,15.62,1111122 
DISL,ioos:station:DISL:MBLA:1,2009-03-01T14:16:00Z,30.4367,-88.0117,0.561,15.6,1111122 
DISL,ioos:station:DISL:MBLA:1,2009-03-01T15:03:00Z,30.4367,-88.0117,2.805,15.24,1111122 
DISL,ioos:station:DISL:MBLA:1,2009-03-01T15:05:00Z,30.4367,-88.0117,2.505,15.18,1111122 
DISL,ioos:station:DISL:MBLA:1,2009-03-01T15:07:00Z,30.4367,-88.0117,1.894,15.17,1111122 
DISL,ioos:station:DISL:MBLA:1,2009-03-01T15:10:00Z,30.4367,-88.0117,1.724,15.21,1111122 
DISL,ioos:station:DISL:MBLA:1,2009-03-01T15:12:00Z,30.4367,-88.0117,1.232,15.18,1111122 
DISL,ioos:station:DISL:MBLA:1,2009-03-01T15:15:00Z,30.4367,-88.0117,0.83,15.21,1111122 
DISL,ioos:station:DISL:MBLA:1,2009-03-01T16:03:00Z,30.4367,-88.0117,3.042,15.47,1111122 
DISL,ioos:station:DISL:MBLA:1,2009-03-01T16:05:00Z,30.4367,-88.0117,2.352,15.43,1111122 
DISL,ioos:station:DISL:MBLA:1,2009-03-01T16:08:00Z,30.4367,-88.0117,2.085,15.41,1111122 
DISL,ioos:station:DISL:MBLA:1,2009-03-01T16:11:00Z,30.4367,-88.0117,1.468,15.44,1111122 
DISL,ioos:station:DISL:MBLA:1,2009-03-01T16:13:00Z,30.4367,-88.0117,0.878,15.47,1111122 
DISL,ioos:station:DISL:MBLA:1,2009-03-01T16:16:00Z,30.4367,-88.0117,0.533,15.37,1111122 
DISL,ioos:station:DISL:MBLA:1,2009-03-01T17:02:00Z,30.4367,-88.0117,2.927,14.86,1111122 
DISL,ioos:station:DISL:MBLA:1,2009-03-01T17:05:00Z,30.4367,-88.0117,2.46,14.73,1111122 
DISL,ioos:station:DISL:MBLA:1,2009-03-01T17:07:00Z,30.4367,-88.0117,2.087,14.58,1111122 
DISL,ioos:station:DISL:MBLA:1,2009-03-01T17:10:00Z,30.4367,-88.0117,1.58,14.41,1111122 
DISL,ioos:station:DISL:MBLA:1,2009-03-01T17:12:00Z,30.4367,-88.0117,1.017,14.3,1111122 
DISL,ioos:station:DISL:MBLA:1,2009-03-01T17:15:00Z,30.4367,-88.0117,0.515,14.43,1111122 
DISL,ioos:station:DISL:MBLA:1,2009-03-01T18:03:00Z,30.4367,-88.0117,2.97,16.36,1111122 
DISL,ioos:station:DISL:MBLA:1,2009-03-01T18:05:00Z,30.4367,-88.0117,2.511,16.44,1111122 
DISL,ioos:station:DISL:MBLA:1,2009-03-01T18:07:00Z,30.4367,-88.0117,2.076,16.24,1111122 
DISL,ioos:station:DISL:MBLA:1,2009-03-01T18:10:00Z,30.4367,-88.0117,1.393,15.77,1111122 
DISL,ioos:station:DISL:MBLA:1,2009-03-01T18:13:00Z,30.4367,-88.0117,1.012,15.57,1111122 
DISL,ioos:station:DISL:MBLA:1,2009-03-01T18:16:00Z,30.4367,-88.0117,0.349,16.33,1111122 
DISL,ioos:station:DISL:MBLA:1,2009-03-01T19:03:00Z,30.4367,-88.0117,2.902,17.48,1111122 
DISL,ioos:station:DISL:MBLA:1,2009-03-01T19:05:00Z,30.4367,-88.0117,2.433,17.29,1111122 
DISL,ioos:station:DISL:MBLA:1,2009-03-01T19:07:00Z,30.4367,-88.0117,2.051,17.22,1111122 
DISL,ioos:station:DISL:MBLA:1,2009-03-01T19:10:00Z,30.4367,-88.0117,1.602,17.31,1111122 
DISL,ioos:station:DISL:MBLA:1,2009-03-01T19:13:00Z,30.4367,-88.0117,0.976,17.07,1111122 
DISL,ioos:station:DISL:MBLA:1,2009-03-01T19:15:00Z,30.4367,-88.0117,0.493,16.67,1111122 
DISL,ioos:station:DISL:MBLA:1,2009-03-01T20:03:00Z,30.4367,-88.0117,3.036,17.63,1111122 
DISL,ioos:station:DISL:MBLA:1,2009-03-01T20:05:00Z,30.4367,-88.0117,2.478,17.22,1111122 
DISL,ioos:station:DISL:MBLA:1,2009-03-01T20:08:00Z,30.4367,-88.0117,1.962,16.81,1111122 
DISL,ioos:station:DISL:MBLA:1,2009-03-01T20:10:00Z,30.4367,-88.0117,1.486,16.49,1111122 
DISL,ioos:station:DISL:MBLA:1,2009-03-01T20:13:00Z,30.4367,-88.0117,1.039,16.29,1111122 
DISL,ioos:station:DISL:MBLA:1,2009-03-01T20:15:00Z,30.4367,-88.0117,0.498,16.11,1111122 
DISL,ioos:station:DISL:MBLA:1,2009-03-01T21:02:00Z,30.4367,-88.0117,2.949,17.56,1111122 
DISL,ioos:station:DISL:MBLA:1,2009-03-01T21:05:00Z,30.4367,-88.0117,2.371,17.54,1111122 
DISL,ioos:station:DISL:MBLA:1,2009-03-01T21:08:00Z,30.4367,-88.0117,2.039,17.49,1111122 
DISL,ioos:station:DISL:MBLA:1,2009-03-01T21:10:00Z,30.4367,-88.0117,1.634,17.47,1111122 
DISL,ioos:station:DISL:MBLA:1,2009-03-01T21:13:00Z,30.4367,-88.0117,1.102,17.42,1111122 
DISL,ioos:station:DISL:MBLA:1,2009-03-01T21:16:00Z,30.4367,-88.0117,0.653,17.43,1111122 
DISL,ioos:station:DISL:MBLA:1,2009-03-01T22:03:00Z,30.4367,-88.0117,2.871,17.38,1111122 
DISL,ioos:station:DISL:MBLA:1,2009-03-01T22:05:00Z,30.4367,-88.0117,2.466,17.33,1111122 
DISL,ioos:station:DISL:MBLA:1,2009-03-01T22:07:00Z,30.4367,-88.0117,2.094,17.33,1111122 
DISL,ioos:station:DISL:MBLA:1,2009-03-01T22:10:00Z,30.4367,-88.0117,1.401,17.36,1111122 
DISL,ioos:station:DISL:MBLA:1,2009-03-01T22:13:00Z,30.4367,-88.0117,0.849,17.37,1111122 
DISL,ioos:station:DISL:MBLA:1,2009-03-01T22:15:00Z,30.4367,-88.0117,0.702,17.36,1111122 
DISL,ioos:station:DISL:MBLA:1,2009-03-01T23:02:00Z,30.4367,-88.0117,2.939,17.58,1111122 
DISL,ioos:station:DISL:MBLA:1,2009-03-01T23:05:00Z,30.4367,-88.0117,2.463,17.57,1111122 
DISL,ioos:station:DISL:MBLA:1,2009-03-01T23:08:00Z,30.4367,-88.0117,1.87,17.57,1111122 
DISL,ioos:station:DISL:MBLA:1,2009-03-01T23:10:00Z,30.4367,-88.0117,1.285,17.56,1111122 
DISL,ioos:station:DISL:MBLA:1,2009-03-01T23:13:00Z,30.4367,-88.0117,1.185,17.59,1111122 
DISL,ioos:station:DISL:MBLA:1,2009-03-01T23:15:00Z,30.4367,-88.0117,0.542,17.58,1111122 
DISL,ioos:station:DISL:MBLA:1,2009-03-02T00:03:00Z,30.4367,-88.0117,2.912,17.9,1111122 
DISL,ioos:station:DISL:MBLA:1,2009-03-02T00:05:00Z,30.4367,-88.0117,2.338,17.7,1111122 
DISL,ioos:station:DISL:MBLA:1,2009-03-02T00:07:00Z,30.4367,-88.0117,2.133,17.42,1111122 
DISL,ioos:station:DISL:MBLA:1,2009-03-02T00:10:00Z,30.4367,-88.0117,1.4,17.36,1111122 
DISL,ioos:station:DISL:MBLA:1,2009-03-02T00:12:00Z,30.4367,-88.0117,1.016,17.0,1111122 
DISL,ioos:station:DISL:MBLA:1,2009-03-02T00:15:00Z,30.4367,-88.0117,0.502,16.83,1111122 
DISL,ioos:station:DISL:MBLA:1,2009-03-02T01:03:00Z,30.4367,-88.0117,2.999,16.91,1111122 
DISL,ioos:station:DISL:MBLA:1,2009-03-02T01:05:00Z,30.4367,-88.0117,2.533,16.31,1111122 
DISL,ioos:station:DISL:MBLA:1,2009-03-02T01:08:00Z,30.4367,-88.0117,2.019,16.08,1111122 
DISL,ioos:station:DISL:MBLA:1,2009-03-02T01:10:00Z,30.4367,-88.0117,1.556,15.9,1111122 
DISL,ioos:station:DISL:MBLA:1,2009-03-02T01:13:00Z,30.4367,-88.0117,0.961,15.89,1111122 
DISL,ioos:station:DISL:MBLA:1,2009-03-02T01:15:00Z,30.4367,-88.0117,0.558,15.82,1111122 
DISL,ioos:station:DISL:MBLA:1,2009-03-02T02:02:00Z,30.4367,-88.0117,2.764,14.74,1111122 
DISL,ioos:station:DISL:MBLA:1,2009-03-02T02:05:00Z,30.4367,-88.0117,2.498,14.47,1111122 
DISL,ioos:station:DISL:MBLA:1,2009-03-02T02:08:00Z,30.4367,-88.0117,1.982,14.26,1111122 
DISL,ioos:station:DISL:MBLA:1,2009-03-02T02:11:00Z,30.4367,-88.0117,1.519,14.12,1111122 
DISL,ioos:station:DISL:MBLA:1,2009-03-02T02:13:00Z,30.4367,-88.0117,1.13,14.05,1111122 
DISL,ioos:station:DISL:MBLA:1,2009-03-02T02:16:00Z,30.4367,-88.0117,0.487,13.97,1111122 
DISL,ioos:station:DISL:MBLA:1,2009-03-02T03:03:00Z,30.4367,-88.0117,2.927,17.61,1111122 
DISL,ioos:station:DISL:MBLA:1,2009-03-02T03:05:00Z,30.4367,-88.0117,2.51,16.54,1111122 
DISL,ioos:station:DISL:MBLA:1,2009-03-02T03:08:00Z,30.4367,-88.0117,1.954,15.49,1111122 
DISL,ioos:station:DISL:MBLA:1,2009-03-02T03:10:00Z,30.4367,-88.0117,1.396,15.1,1111122 
DISL,ioos:station:DISL:MBLA:1,2009-03-02T03:13:00Z,30.4367,-88.0117,0.996,14.69,1111122 
DISL,ioos:station:DISL:MBLA:1,2009-03-02T03:15:00Z,30.4367,-88.0117,0.354,14.2,1111122 
DISL,ioos:station:DISL:MBLA:1,2009-03-02T04:03:00Z,30.4367,-88.0117,2.996,15.05,1111122 
DISL,ioos:station:DISL:MBLA:1,2009-03-02T04:05:00Z,30.4367,-88.0117,2.509,14.87,1111122 
DISL,ioos:station:DISL:MBLA:1,2009-03-02T04:08:00Z,30.4367,-88.0117,2.103,14.91,1111122 
DISL,ioos:station:DISL:MBLA:1,2009-03-02T04:10:00Z,30.4367,-88.0117,1.606,14.87,1111122 
DISL,ioos:station:DISL:MBLA:1,2009-03-02T04:13:00Z,30.4367,-88.0117,1.111,14.79,1111122 
DISL,ioos:station:DISL:MBLA:1,2009-03-02T04:15:00Z,30.4367,-88.0117,0.651,14.84,1111122 
DISL,ioos:station:DISL:MBLA:1,2009-03-02T05:03:00Z,30.4367,-88.0117,3.011,16.29,1111122 
DISL,ioos:station:DISL:MBLA:1,2009-03-02T05:05:00Z,30.4367,-88.0117,2.56,16.22,1111122 
DISL,ioos:station:DISL:MBLA:1,2009-03-02T05:08:00Z,30.4367,-88.0117,1.995,16.03,1111122 
DISL,ioos:station:DISL:MBLA:1,2009-03-02T05:10:00Z,30.4367,-88.0117,1.438,16.15,1111122 
DISL,ioos:station:DISL:MBLA:1,2009-03-02T05:13:00Z,30.4367,-88.0117,0.779,16.08,1111122 
DISL,ioos:station:DISL:MBLA:1,2009-03-02T05:15:00Z,30.4367,-88.0117,0.449,15.68,1111122 
DISL,ioos:station:DISL:MBLA:1,2009-03-02T06:03:00Z,30.4367,-88.0117,3.073,17.41,1111122 
DISL,ioos:station:DISL:MBLA:1,2009-03-02T06:05:00Z,30.4367,-88.0117,2.521,17.17,1111122 
DISL,ioos:station:DISL:MBLA:1,2009-03-02T06:08:00Z,30.4367,-88.0117,2.017,16.7,1111122 
DISL,ioos:station:DISL:MBLA:1,2009-03-02T06:10:00Z,30.4367,-88.0117,1.448,16.23,1111122 
DISL,ioos:station:DISL:MBLA:1,2009-03-02T06:13:00Z,30.4367,-88.0117,1.215,16.27,1111122 
DISL,ioos:station:DISL:MBLA:1,2009-03-02T06:16:00Z,30.4367,-88.0117,0.356,15.6,1111122 
DISL,ioos:station:DISL:MBLA:1,2009-03-02T07:03:00Z,30.4367,-88.0117,2.849,16.91,1111122 
DISL,ioos:station:DISL:MBLA:1,2009-03-02T07:06:00Z,30.4367,-88.0117,2.511,16.72,1111122 
DISL,ioos:station:DISL:MBLA:1,2009-03-02T07:08:00Z,30.4367,-88.0117,1.752,16.51,1111122 
DISL,ioos:station:DISL:MBLA:1,2009-03-02T07:11:00Z,30.4367,-88.0117,1.646,16.42,1111122 
DISL,ioos:station:DISL:MBLA:1,2009-03-02T07:13:00Z,30.4367,-88.0117,1.011,16.29,1111122 
DISL,ioos:station:DISL:MBLA:1,2009-03-02T07:16:00Z,30.4367,-88.0117,0.504,16.23,1111122 
DISL,ioos:station:DISL:MBLA:1,2009-03-02T08:03:00Z,30.4367,-88.0117,2.999,16.17,1111122 
DISL,ioos:station:DISL:MBLA:1,2009-03-02T08:05:00Z,30.4367,-88.0117,2.338,15.88,1111122 
DISL,ioos:station:DISL:MBLA:1,2009-03-02T08:08:00Z,30.4367,-88.0117,1.86,15.9,1111122 
DISL,ioos:station:DISL:MBLA:1,2009-03-02T08:10:00Z,30.4367,-88.0117,1.566,15.9,1111122 
DISL,ioos:station:DISL:MBLA:1,2009-03-02T08:13:00Z,30.4367,-88.0117,1.009,15.91,1111122 
DISL,ioos:station:DISL:MBLA:1,2009-03-02T08:15:00Z,30.4367,-88.0117,0.69,15.94,1111122 
DISL,ioos:station:DISL:MBLA:1,2009-03-02T09:03:00Z,30.4367,-88.0117,3.024,15.05,1111122 
DISL,ioos:station:DISL:MBLA:1,2009-03-02T09:05:00Z,30.4367,-88.0117,2.475,15.34,1111122 
DISL,ioos:station:DISL:MBLA:1,2009-03-02T09:08:00Z,30.4367,-88.0117,2.013,14.74,1111122 
DISL,ioos:station:DISL:MBLA:1,2009-03-02T09:10:00Z,30.4367,-88.0117,1.533,14.22,1111122 
DISL,ioos:station:DISL:MBLA:1,2009-03-02T09:13:00Z,30.4367,-88.0117,1.152,13.81,1111122 
DISL,ioos:station:DISL:MBLA:1,2009-03-02T09:16:00Z,30.4367,-88.0117,0.46,13.13,1111122 
DISL,ioos:station:DISL:MBLA:1,2009-03-02T10:03:00Z,30.4367,-88.0117,2.895,15.98,1111122 
DISL,ioos:station:DISL:MBLA:1,2009-03-02T10:05:00Z,30.4367,-88.0117,2.488,15.79,1111122 
DISL,ioos:station:DISL:MBLA:1,2009-03-02T10:07:00Z,30.4367,-88.0117,2.14,15.75,1111122 
DISL,ioos:station:DISL:MBLA:1,2009-03-02T10:10:00Z,30.4367,-88.0117,1.44,15.28,1111122 
DISL,ioos:station:DISL:MBLA:1,2009-03-02T10:12:00Z,30.4367,-88.0117,1.048,14.55,1111122 
DISL,ioos:station:DISL:MBLA:1,2009-03-02T10:15:00Z,30.4367,-88.0117,0.559,14.36,1111122 
DISL,ioos:station:DISL:MBLA:1,2009-03-02T11:03:00Z,30.4367,-88.0117,3.058,15.86,1111122 
DISL,ioos:station:DISL:MBLA:1,2009-03-02T11:05:00Z,30.4367,-88.0117,2.544,15.79,1111122 
DISL,ioos:station:DISL:MBLA:1,2009-03-02T11:08:00Z,30.4367,-88.0117,1.911,15.64,1111122 
DISL,ioos:station:DISL:MBLA:1,2009-03-02T11:11:00Z,30.4367,-88.0117,1.593,15.62,1111122 
DISL,ioos:station:DISL:MBLA:1,2009-03-02T11:13:00Z,30.4367,-88.0117,1.034,15.57,1111122 
DISL,ioos:station:DISL:MBLA:1,2009-03-02T11:16:00Z,30.4367,-88.0117,0.477,15.48,1111122 
DISL,ioos:station:DISL:MBLA:1,2009-03-02T12:03:00Z,30.4367,-88.0117,2.99,16.01,1111122 
DISL,ioos:station:DISL:MBLA:1,2009-03-02T12:05:00Z,30.4367,-88.0117,2.597,15.84,1111122 
DISL,ioos:station:DISL:MBLA:1,2009-03-02T12:08:00Z,30.4367,-88.0117,2.129,15.72,1111122 
DISL,ioos:station:DISL:MBLA:1,2009-03-02T12:10:00Z,30.4367,-88.0117,1.597,15.17,1111122 
DISL,ioos:station:DISL:MBLA:1,2009-03-02T12:13:00Z,30.4367,-88.0117,1.188,15.22,1111122 
DISL,ioos:station:DISL:MBLA:1,2009-03-02T12:16:00Z,30.4367,-88.0117,0.324,15.05,1111122 
DISL,ioos:station:DISL:MBLA:1,2009-03-02T13:02:00Z,30.4367,-88.0117,2.946,16.57,1111122 
DISL,ioos:station:DISL:MBLA:1,2009-03-02T13:05:00Z,30.4367,-88.0117,2.457,16.0,1111122 
DISL,ioos:station:DISL:MBLA:1,2009-03-02T13:07:00Z,30.4367,-88.0117,2.086,15.33,1111122 
DISL,ioos:station:DISL:MBLA:1,2009-03-02T13:10:00Z,30.4367,-88.0117,1.29,15.25,1111122 
DISL,ioos:station:DISL:MBLA:1,2009-03-02T13:12:00Z,30.4367,-88.0117,1.192,15.19,1111122 
DISL,ioos:station:DISL:MBLA:1,2009-03-02T13:15:00Z,30.4367,-88.0117,0.195,15.09,1111122 
DISL,ioos:station:DISL:MBLA:1,2009-03-02T14:02:00Z,30.4367,-88.0117,2.95,16.08,1111122 
DISL,ioos:station:DISL:MBLA:1,2009-03-02T14:05:00Z,30.4367,-88.0117,2.652,16.15,1111122 
DISL,ioos:station:DISL:MBLA:1,2009-03-02T14:07:00Z,30.4367,-88.0117,1.947,16.16,1111122 
DISL,ioos:station:DISL:MBLA:1,2009-03-02T14:10:00Z,30.4367,-88.0117,1.409,15.16,1111122 
DISL,ioos:station:DISL:MBLA:1,2009-03-02T14:12:00Z,30.4367,-88.0117,0.989,15.03,1111122 
DISL,ioos:station:DISL:MBLA:1,2009-03-02T14:15:00Z,30.4367,-88.0117,0.54,15.25,1111122 
DISL,ioos:station:DISL:MBLA:1,2009-03-02T15:03:00Z,30.4367,-88.0117,2.999,15.14,1111122 
DISL,ioos:station:DISL:MBLA:1,2009-03-02T15:05:00Z,30.4367,-88.0117,2.505,15.06,1111122 
DISL,ioos:station:DISL:MBLA:1,2009-03-02T15:07:00Z,30.4367,-88.0117,2.045,15.02,1111122 
DISL,ioos:station:DISL:MBLA:1,2009-03-02T15:10:00Z,30.4367,-88.0117,1.422,14.99,1111122 
DISL,ioos:station:DISL:MBLA:1,2009-03-02T15:13:00Z,30.4367,-88.0117,0.95,14.99,1111122 
DISL,ioos:station:DISL:MBLA:1,2009-03-02T15:15:00Z,30.4367,-88.0117,0.426,15.02,1111122 
DISL,ioos:station:DISL:MBLA:1,2009-03-02T16:03:00Z,30.4367,-88.0117,3.049,16.73,1111122 
DISL,ioos:station:DISL:MBLA:1,2009-03-02T16:05:00Z,30.4367,-88.0117,2.497,15.57,1111122 
DISL,ioos:station:DISL:MBLA:1,2009-03-02T16:08:00Z,30.4367,-88.0117,1.997,16.29,1111122 
DISL,ioos:station:DISL:MBLA:1,2009-03-02T16:10:00Z,30.4367,-88.0117,1.504,16.26,1111122 
DISL,ioos:station:DISL:MBLA:1,2009-03-02T16:13:00Z,30.4367,-88.0117,0.957,15.41,1111122 
DISL,ioos:station:DISL:MBLA:1,2009-03-02T16:15:00Z,30.4367,-88.0117,0.592,14.96,1111122 
DISL,ioos:station:DISL:MBLA:1,2009-03-02T17:02:00Z,30.4367,-88.0117,2.918,18.69,1111122 
DISL,ioos:station:DISL:MBLA:1,2009-03-02T17:05:00Z,30.4367,-88.0117,2.495,18.47,1111122 
DISL,ioos:station:DISL:MBLA:1,2009-03-02T17:07:00Z,30.4367,-88.0117,2.0,17.65,1111122 
DISL,ioos:station:DISL:MBLA:1,2009-03-02T17:10:00Z,30.4367,-88.0117,1.498,18.35,1111122 
DISL,ioos:station:DISL:MBLA:1,2009-03-02T17:13:00Z,30.4367,-88.0117,1.081,17.97,1111122 
DISL,ioos:station:DISL:MBLA:1,2009-03-02T17:15:00Z,30.4367,-88.0117,0.43,16.45,1111122 
DISL,ioos:station:DISL:MBLA:1,2009-03-02T18:02:00Z,30.4367,-88.0117,2.933,20.0,1111122 
DISL,ioos:station:DISL:MBLA:1,2009-03-02T18:05:00Z,30.4367,-88.0117,2.506,19.94,1111122 
DISL,ioos:station:DISL:MBLA:1,2009-03-02T18:07:00Z,30.4367,-88.0117,2.008,19.63,1111122 
DISL,ioos:station:DISL:MBLA:1,2009-03-02T18:10:00Z,30.4367,-88.0117,1.505,18.77,1111122 
DISL,ioos:station:DISL:MBLA:1,2009-03-02T18:12:00Z,30.4367,-88.0117,1.016,18.04,1111122 
DISL,ioos:station:DISL:MBLA:1,2009-03-02T18:15:00Z,30.4367,-88.0117,0.458,17.16,1111122 
DISL,ioos:station:DISL:MBLA:1,2009-03-02T19:02:00Z,30.4367,-88.0117,2.938,20.27,1111122 
DISL,ioos:station:DISL:MBLA:1,2009-03-02T19:05:00Z,30.4367,-88.0117,2.504,20.21,1111122 
DISL,ioos:station:DISL:MBLA:1,2009-03-02T19:07:00Z,30.4367,-88.0117,1.999,18.96,1111122 
DISL,ioos:station:DISL:MBLA:1,2009-03-02T19:10:00Z,30.4367,-88.0117,1.497,18.21,1111122 
DISL,ioos:station:DISL:MBLA:1,2009-03-02T19:12:00Z,30.4367,-88.0117,1.058,17.2,1111122 
DISL,ioos:station:DISL:MBLA:1,2009-03-02T19:15:00Z,30.4367,-88.0117,0.592,16.84,1111122 
DISL,ioos:station:DISL:MBLA:1,2009-03-02T20:02:00Z,30.4367,-88.0117,2.945,20.66,1111122 
DISL,ioos:station:DISL:MBLA:1,2009-03-02T20:05:00Z,30.4367,-88.0117,2.502,19.99,1111122 
DISL,ioos:station:DISL:MBLA:1,2009-03-02T20:07:00Z,30.4367,-88.0117,1.936,19.58,1111122 
DISL,ioos:station:DISL:MBLA:1,2009-03-02T20:10:00Z,30.4367,-88.0117,1.431,19.37,1111122 
DISL,ioos:station:DISL:MBLA:1,2009-03-02T20:12:00Z,30.4367,-88.0117,0.993,19.25,1111122 